DW9426 Weather Reports


time (UTC)temp
F
wind
direction
speed
knots
gust
knots
rain 1hr
in
rain 24hr
in
rain mn
in
humidity
%
barometer
mb
20220629043004 75 32 0.9 3.5 0.00 0.00 0.00 67 1022.2
20220629042504 75 33 0.0 2.6 0.00 0.00 0.00 67 1022.2
20220629042004 76 37 0.0 2.6 0.00 0.00 0.00 67 1022.2
20220629041504 76 30 0.0 2.6 0.00 0.00 0.00 66 1022.1
20220629041004 76 34 0.9 3.5 0.00 0.00 0.00 66 1022.2
20220629040504 76 39 0.9 3.5 0.00 0.00 0.00 66 1022.1
20220629040004 76 42 0.0 2.6 0.00 0.00 0.00 66 1022.2
20220629035504 76 34 0.9 2.6 0.00 0.00 0.00 66 1022.2
20220629035003 76 29 0.9 2.6 0.00 0.00 0.00 66 1022.1
20220629034504 76 27 0.0 2.6 0.00 0.00 0.00 65 1022.1
20220629034004 76 31 0.0 2.6 0.00 0.00 0.00 65 1022.1
20220629033504 76 33 0.0 2.6 0.00 0.00 0.00 65 1022.0
20220629033004 76 39 0.0 2.6 0.00 0.00 0.00 64 1021.9
20220629032503 76 38 0.0 2.6 0.00 0.00 0.00 64 1021.9
20220629032004 76 33 0.0 2.6 0.00 0.00 0.00 64 1021.8
20220629031504 76 35 0.9 2.6 0.00 0.00 0.00 64 1021.7
20220629031004 77 43 0.9 2.6 0.00 0.00 0.00 64 1021.6
20220629030504 76 42 0.9 2.6 0.00 0.00 0.00 64 1021.6
20220629030004 76 36 0.0 2.6 0.00 0.00 0.00 64 1021.5
20220629025504 77 35 0.0 3.5 0.00 0.00 0.00 64 1021.5
20220629025005 77 34 0.9 3.5 0.00 0.00 0.00 63 1021.4
20220629024504 77 32 0.0 2.6 0.00 0.00 0.00 63 1021.3
20220629024004 77 32 0.0 2.6 0.00 0.00 0.00 63 1021.2
20220629023504 77 35 0.9 3.5 0.00 0.00 0.00 63 1021.2
20220629023004 77 40 0.9 3.5 0.00 0.00 0.00 63 1021.1
20220629022504 77 36 0.0 3.5 0.00 0.00 0.00 63 1021.1
20220629022004 77 30 0.9 3.5 0.00 0.00 0.00 63 1021.1
20220629021504 78 35 0.9 3.5 0.00 0.00 0.00 62 1021.0
20220629021004 78 37 0.0 3.5 0.00 0.00 0.00 62 1021.1
20220629020504 78 34 0.0 2.6 0.00 0.00 0.00 61 1021.1
20220629020004 78 18 0.0 2.6 0.00 0.00 0.00 61 1021.1
20220629015504 78 12 0.9 2.6 0.00 0.00 0.00 60 1021.1
20220629015004 79 14 0.9 3.5 0.00 0.00 0.00 59 1021.0
20220629014504 79 16 0.9 3.5 0.00 0.00 0.00 59 1021.0
20220629014004 79 15 0.9 3.5 0.00 0.00 0.00 58 1020.9
20220629013505 80 13 0.0 3.5 0.00 0.00 0.00 58 1020.8
20220629013005 80 19 0.0 1.7 0.00 0.00 0.00 57 1020.8
20220629012504 80 33 0.9 4.3 0.00 0.00 0.00 56 1020.8
20220629012005 81 33 1.7 4.3 0.00 0.00 0.00 56 1020.7
20220629011503 81 36 1.7 5.2 0.00 0.00 0.00 55 1020.7
20220629011004 81 34 1.7 5.2 0.00 0.00 0.00 55 1020.7
20220629010504 81 29 1.7 5.2 0.00 0.00 0.00 54 1020.7
20220629010004 82 35 1.7 7.8 0.00 0.00 0.00 54 1020.5
20220629005504 82 34 3.5 10.4 0.00 0.00 0.00 53 1020.6
20220629005004 82 31 3.5 10.4 0.00 0.00 0.00 52 1020.5
20220629004504 82 37 4.3 8.7 0.00 0.00 0.00 52 1020.5
20220629004004 83 42 4.3 8.7 0.00 0.00 0.00 51 1020.5
20220629003504 83 39 3.5 7.8 0.00 0.00 0.00 51 1020.5
20220629003004 83 34 3.5 8.7 0.00 0.00 0.00 50 1020.4
20220629002504 84 32 4.3 10.4 0.00 0.00 0.00 50 1020.4
20220629002004 84 36 4.3 10.4 0.00 0.00 0.00 49 1020.4
20220629001504 84 36 4.3 11.3 0.00 0.00 0.00 48 1020.3
20220629001004 84 35 5.2 11.3 0.00 0.00 0.00 48 1020.3
20220629000505 85 30 4.3 11.3 0.00 0.00 0.00 47 1020.3
20220629000004 85 27 4.3 11.3 0.00 0.00 0.00 46 1020.2
20220628235505 85 28 4.3 9.6 0.00 0.00 0.00 47 1020.2
20220628235005 86 25 4.3 7.8 0.00 0.00 0.00 46 1020.2
20220628234504 86 23 4.3 9.6 0.00 0.00 0.00 46 1020.3
20220628234004 85 29 4.3 9.6 0.00 0.00 0.00 46 1020.3
20220628233504 85 31 5.2 10.4 0.00 0.00 0.00 46 1020.4
20220628233004 85 28 4.3 10.4 0.00 0.00 0.00 46 1020.4
20220628232504 85 22 4.3 10.4 0.00 0.00 0.00 46 1020.4
20220628232004 85 24 5.2 10.4 0.00 0.00 0.00 46 1020.4
20220628231505 86 34 5.2 9.6 0.00 0.00 0.00 45 1020.5
20220628231006 86 34 5.2 10.4 0.00 0.00 0.00 44 1020.6
20220628230505 86 31 5.2 10.4 0.00 0.00 0.00 45 1020.6
20220628230004 86 31 5.2 10.4 0.00 0.00 0.00 44 1020.7
20220628225504 86 33 5.2 10.4 0.00 0.00 0.00 44 1020.7
20220628225004 86 30 4.3 10.4 0.00 0.00 0.00 42 1020.8
20220628224504 86 28 5.2 11.3 0.00 0.00 0.00 42 1020.8
20220628224004 86 30 5.2 11.3 0.00 0.00 0.00 43 1020.9
20220628223504 87 23 4.3 10.4 0.00 0.00 0.00 43 1020.9
20220628223005 86 16 4.3 8.7 0.00 0.00 0.00 43 1021.0
20220628222505 86 17 4.3 8.7 0.00 0.00 0.00 42 1021.1
20220628222005 86 11 4.3 8.7 0.00 0.00 0.00 42 1021.1
20220628221507 86 7 4.3 11.3 0.00 0.00 0.00 42 1021.2
20220628221004 87 24 4.3 11.3 0.00 0.00 0.00 41 1021.2
20220628220504 87 27 4.3 9.6 0.00 0.00 0.00 40 1021.2
20220628220004 87 34 5.2 13.0 0.00 0.00 0.00 39 1021.2
20220628215505 87 40 6.1 13.0 0.00 0.00 0.00 40 1021.3
20220628215005 88 36 4.3 12.2 0.00 0.00 0.00 38 1021.4
20220628214504 88 35 3.5 8.7 0.00 0.00 0.00 39 1021.6
20220628214005 88 28 2.6 8.7 0.00 0.00 0.00 39 1021.6
20220628213504 88 8 2.6 7.0 0.00 0.00 0.00 39 1021.6
20220628213004 88 15 4.3 7.8 0.00 0.00 0.00 38 1021.6
20220628212504 88 28 3.5 11.3 0.00 0.00 0.00 38 1021.8
20220628212004 89 44 2.6 11.3 0.00 0.00 0.00 37 1021.8
20220628211504 89 56 2.6 8.7 0.00 0.00 0.00 39 1022.0
20220628211004 89 60 1.7 8.7 0.00 0.00 0.00 36 1021.9
20220628210505 90 68 1.7 7.0 0.00 0.00 0.00 37 1022.1
20220628210004 89 61 1.7 6.1 0.00 0.00 0.00 37 1022.2
20220628205504 89 51 1.7 7.0 0.00 0.00 0.00 36 1022.2
20220628205004 89 50 2.6 7.0 0.00 0.00 0.00 37 1022.3
20220628204505 89 61 1.7 9.6 0.00 0.00 0.00 36 1022.3
20220628204004 89 82 2.6 9.6 0.00 0.00 0.00 38 1022.4
20220628203504 88 68 2.6 7.0 0.00 0.00 0.00 38 1022.4
20220628203004 89 48 1.7 7.0 0.00 0.00 0.00 37 1022.5
20220628202504 89 56 2.6 7.0 0.00 0.00 0.00 37 1022.5
20220628202005 88 57 2.6 7.0 0.00 0.00 0.00 37 1022.6
20220628201504 88 85 1.7 6.1 0.00 0.00 0.00 38 1022.6
20220628201004 88 92 1.7 5.2 0.00 0.00 0.00 39 1022.7
20220628200504 88 51 0.9 5.2 0.00 0.00 0.00 39 1022.7
20220628200004 88 47 1.7 6.1 0.00 0.00 0.00 40 1022.7
20220628195504 87 38 3.5 7.8 0.00 0.00 0.00 40 1022.8
20220628195005 87 51 2.6 7.8 0.00 0.00 0.00 38 1022.8
20220628194504 88 95 1.7 5.2 0.00 0.00 0.00 39 1022.7
20220628194004 87 64 1.7 6.1 0.00 0.00 0.00 40 1022.9
20220628193504 87 49 1.7 6.1 0.00 0.00 0.00 40 1022.9
20220628193004 87 51 2.6 7.8 0.00 0.00 0.00 40 1023.0
20220628192503 87 50 2.6 7.8 0.00 0.00 0.00 40 1023.0
20220628192004 87 66 1.7 7.0 0.00 0.00 0.00 39 1023.0
20220628191504 87 69 2.6 7.8 0.00 0.00 0.00 42 1023.2
20220628191004 87 60 2.6 7.8 0.00 0.00 0.00 42 1023.2
20220628190504 87 46 1.7 7.8 0.00 0.00 0.00 42 1023.3
20220628190004 86 44 1.7 7.0 0.00 0.00 0.00 41 1023.4
20220628185504 87 66 0.9 6.1 0.00 0.00 0.00 43 1023.5
20220628185004 86 74 1.7 5.2 0.00 0.00 0.00 41 1023.6
20220628184504 86 63 2.6 6.1 0.00 0.00 0.00 43 1023.6
20220628184004 86 37 4.3 11.3 0.00 0.00 0.00 45 1023.7
20220628183504 85 37 2.6 11.3 0.00 0.00 0.00 43 1023.7
20220628183004 86 46 1.7 8.7 0.00 0.00 0.00 43 1023.8
20220628182504 85 35 3.5 8.7 0.00 0.00 0.00 43 1024.0
20220628182004 86 38 2.6 8.7 0.00 0.00 0.00 42 1024.0
20220628181504 87 80 1.7 7.0 0.00 0.00 0.00 42 1024.0
20220628181004 86 111 0.9 6.1 0.00 0.00 0.00 43 1024.1
20220628180504 86 105 1.7 7.0 0.00 0.00 0.00 44 1024.2
20220628180004 86 105 1.7 7.0 0.00 0.00 0.00 43 1024.2
20220628175504 86 88 1.7 7.0 0.00 0.00 0.00 44 1024.2
20220628175004 86 81 0.9 6.1 0.00 0.00 0.00 44 1024.1
20220628174504 86 93 0.9 6.1 0.00 0.00 0.00 46 1024.1
20220628174004 85 72 0.9 6.1 0.00 0.00 0.00 47 1024.2
20220628173504 84 60 1.7 8.7 0.00 0.00 0.00 47 1024.2
20220628173004 84 56 1.7 8.7 0.00 0.00 0.00 47 1024.3
20220628172504 83 57 1.7 7.8 0.00 0.00 0.00 49 1024.2
20220628172004 83 55 3.5 9.6 0.00 0.00 0.00 48 1024.3
20220628171504 83 53 3.5 9.6 0.00 0.00 0.00 47 1024.3
20220628171005 83 48 2.6 9.6 0.00 0.00 0.00 47 1024.4
20220628170504 83 46 2.6 8.7 0.00 0.00 0.00 47 1024.4
20220628170004 83 52 1.7 8.7 0.00 0.00 0.00 46 1024.4
20220628165504 84 59 1.7 7.0 0.00 0.00 0.00 45 1024.4
20220628165004 84 59 1.7 9.6 0.00 0.00 0.00 48 1024.4
20220628164505 84 75 1.7 9.6 0.00 0.00 0.00 48 1024.4
20220628164003 84 79 0.9 7.0 0.00 0.00 0.00 47 1024.5
20220628163505 83 70 2.6 8.7 0.00 0.00 0.00 49 1024.3
20220628163004 83 75 1.7 8.7 0.00 0.00 0.00 48 1024.4
20220628162504 83 81 0.9 7.0 0.00 0.00 0.00 48 1024.5
20220628162004 83 82 0.9 6.1 0.00 0.00 0.00 50 1024.4
20220628161504 83 66 1.7 8.7 0.00 0.00 0.00 50 1024.5
20220628161004 82 65 1.7 8.7 0.00 0.00 0.00 51 1024.6
20220628160505 82 62 1.7 8.7 0.00 0.00 0.00 50 1024.6
20220628160004 82 57 1.7 9.6 0.00 0.00 0.00 50 1024.5
20220628155504 82 59 2.6 9.6 0.00 0.00 0.00 49 1024.5
20220628155004 81 59 3.5 9.6 0.00 0.00 0.00 49 1024.5
20220628154505 82 56 2.6 12.2 0.00 0.00 0.00 50 1024.5
20220628154004 82 64 1.7 12.2 0.00 0.00 0.00 48 1024.4
20220628153504 82 80 1.7 6.1 0.00 0.00 0.00 49 1024.2
20220628153004 81 55 2.6 9.6 0.00 0.00 0.00 52 1024.3
20220628152504 80 55 2.6 9.6 0.00 0.00 0.00 51 1024.3
20220628152004 80 59 2.6 7.8 0.00 0.00 0.00 50 1024.3
20220628151504 81 61 1.7 7.8 0.00 0.00 0.00 50 1024.2
20220628151003 81 58 1.7 7.8 0.00 0.00 0.00 50 1024.3
20220628150504 80 61 1.7 7.0 0.00 0.00 0.00 51 1024.3
20220628150004 80 62 1.7 6.1 0.00 0.00 0.00 52 1024.4
20220628145504 79 51 3.5 8.7 0.00 0.00 0.00 52 1024.3
20220628145004 79 51 3.5 9.6 0.00 0.00 0.00 52 1024.3
20220628144504 79 55 3.5 9.6 0.00 0.00 0.00 51 1024.3
20220628144004 79 55 1.7 7.8 0.00 0.00 0.00 51 1024.4
20220628143504 79 64 0.9 6.1 0.00 0.00 0.00 54 1024.4
20220628143004 79 74 0.9 4.3 0.00 0.00 0.00 56 1024.3
20220628142504 79 74 0.9 6.1 0.00 0.00 0.00 57 1024.2
20220628142004 78 58 1.7 8.7 0.00 0.00 0.00 59 1024.2
20220628141504 78 49 2.6 8.7 0.00 0.00 0.00 60 1024.2
20220628141004 77 48 2.6 8.7 0.00 0.00 0.00 60 1024.2
20220628140504 77 52 2.6 9.6 0.00 0.00 0.00 62 1024.2
20220628140005 77 50 3.5 9.6 0.00 0.00 0.00 61 1024.3
20220628135504 77 52 2.6 6.1 0.00 0.00 0.00 62 1024.3
20220628135004 77 54 1.7 5.2 0.00 0.00 0.00 63 1024.2
20220628134504 77 52 0.9 4.3 0.00 0.00 0.00 63 1024.2
20220628134004 76 49 0.9 5.2 0.00 0.00 0.00 65 1024.2
20220628133504 76 51 0.9 5.2 0.00 0.00 0.00 66 1024.2
20220628133004 75 52 1.7 5.2 0.00 0.00 0.00 69 1024.1
20220628132503 75 53 1.7 6.1 0.00 0.00 0.00 71 1024.1
20220628132004 74 53 1.7 6.1 0.00 0.00 0.00 75 1024.0
20220628131504 74 50 0.9 5.2 0.00 0.00 0.00 75 1023.9
20220628131004 73 55 0.9 4.3 0.00 0.00 0.00 78 1023.9
20220628130504 73 54 0.9 4.3 0.00 0.00 0.00 80 1023.9
20220628130004 72 39 0.9 4.3 0.00 0.00 0.00 82 1023.8
20220628125505 72 44 0.9 4.3 0.00 0.00 0.00 82 1023.8
20220628125003 72 57 0.9 3.5 0.00 0.00 0.00 82 1023.8
20220628124504 71 53 0.0 2.6 0.00 0.00 0.00 83 1023.9
20220628124004 71 50 0.0 2.6 0.00 0.00 0.00 84 1023.8
20220628123504 71 45 0.0 1.7 0.00 0.00 0.00 85 1023.9
20220628123004 70 37 0.0 1.7 0.00 0.00 0.00 86 1023.8
20220628122504 70 33 0.0 1.7 0.00 0.00 0.00 86 1023.8
20220628122004 70 35 0.0 1.7 0.00 0.00 0.00 87 1023.7
20220628121504 69 37 0.0 1.7 0.00 0.00 0.00 87 1023.8
20220628121004 69 34 0.0 1.7 0.00 0.00 0.00 87 1023.7
20220628120504 69 32 0.0 2.6 0.00 0.00 0.00 87 1023.6
20220628120004 69 33 0.0 2.6 0.00 0.00 0.00 87 1023.6
20220628115504 69 38 0.0 1.7 0.00 0.00 0.00 87 1023.5
20220628115003 69 6 0.0 0.9 0.00 0.00 0.00 86 1023.5
20220628114504 69 349 0.0 0.9 0.00 0.00 0.00 86 1023.6
20220628114004 69 359 0.0 0.9 0.00 0.00 0.00 87 1023.5
20220628113504 69 25 0.0 0.9 0.00 0.00 0.00 87 1023.5
20220628113004 69 42 0.0 0.9 0.00 0.00 0.00 87 1023.5
20220628112503 69 40 0.0 0.9 0.00 0.00 0.00 87 1023.5
20220628112004 69 39 0.0 0.9 0.00 0.00 0.00 86 1023.5
20220628111504 69 43 0.0 0.9 0.00 0.00 0.00 86 1023.4
20220628111004 69 43 0.0 0.9 0.00 0.00 0.00 86 1023.3
20220628110504 69 41 0.0 0.9 0.00 0.00 0.00 85 1023.3
20220628110004 69 54 0.0 0.9 0.00 0.00 0.00 86 1023.2
20220628105504 70 59 0.0 0.9 0.00 0.00 0.00 85 1023.1
20220628105004 70 59 0.0 0.9 0.00 0.00 0.00 85 1023.0
20220628104504 69 60 0.0 0.9 0.00 0.00 0.00 85 1023.0
20220628104004 69 61 0.0 0.9 0.00 0.00 0.00 86 1023.0
20220628103504 69 0 0.0 0.0 0.00 0.00 0.00 86 1023.0
20220628103004 69 46 0.0 0.9 0.00 0.00 0.00 86 1022.9
20220628102504 69 47 0.0 1.7 0.00 0.00 0.00 86 1022.8
20220628102005 69 48 0.0 1.7 0.00 0.00 0.00 86 1022.9
20220628101504 69 55 0.0 0.9 0.00 0.00 0.00 86 1022.9
20220628101004 69 55 0.0 0.9 0.00 0.00 0.00 86 1022.9
20220628100504 69 53 0.0 0.9 0.00 0.00 0.00 86 1022.9
20220628100004 69 52 0.0 0.9 0.00 0.00 0.00 86 1022.8
20220628095504 68 0 0.0 0.0 0.00 0.00 0.00 86 1022.9
20220628095003 68 0 0.0 0.0 0.00 0.00 0.00 87 1022.9
20220628094504 68 127 0.0 0.9 0.00 0.00 0.00 87 1022.8
20220628094004 68 127 0.0 0.9 0.00 0.00 0.00 87 1022.7
20220628093504 68 0 0.0 0.0 0.00 0.00 0.00 86 1022.7
20220628093004 68 0 0.0 0.0 0.00 0.00 0.00 86 1022.8
20220628092504 68 0 0.0 0.0 0.00 0.00 0.00 86 1022.8
20220628092003 68 0 0.0 0.0 0.00 0.00 0.00 86 1022.8
20220628091504 68 0 0.0 0.0 0.00 0.00 0.00 86 1022.7
20220628091004 69 0 0.0 0.0 0.00 0.00 0.00 85 1022.7
20220628090504 69 0 0.0 0.0 0.00 0.00 0.00 85 1022.6
20220628090004 69 0 0.0 0.0 0.00 0.00 0.00 86 1022.7
20220628085503 69 0 0.0 0.0 0.00 0.00 0.00 86 1022.7
20220628085004 69 0 0.0 0.0 0.00 0.00 0.00 86 1022.7
20220628084504 69 0 0.0 0.0 0.00 0.00 0.00 87 1022.5
20220628084004 69 0 0.0 0.0 0.00 0.00 0.00 87 1022.5
20220628083504 69 0 0.0 0.0 0.00 0.00 0.00 86 1022.5
20220628083004 69 0 0.0 0.0 0.00 0.00 0.00 86 1022.5
20220628082503 70 0 0.0 0.0 0.00 0.00 0.00 86 1022.5
20220628082005 70 0 0.0 0.0 0.00 0.00 0.00 86 1022.5
20220628081504 70 0 0.0 0.0 0.00 0.00 0.00 86 1022.5
20220628081004 70 0 0.0 0.0 0.00 0.00 0.00 85 1022.5
20220628080504 70 0 0.0 0.0 0.00 0.00 0.00 85 1022.4
20220628080004 70 127 0.0 0.9 0.00 0.00 0.00 85 1022.5
20220628075504 70 122 0.0 0.9 0.00 0.00 0.00 85 1022.4
20220628075004 70 120 0.0 0.9 0.00 0.00 0.00 86 1022.4
20220628074504 70 109 0.0 0.9 0.00 0.00 0.00 86 1022.4
20220628074004 71 101 0.0 0.9 0.00 0.00 0.00 86 1022.5
20220628073504 71 0 0.0 0.0 0.00 0.00 0.00 85 1022.6
20220628073004 71 0 0.0 0.0 0.00 0.00 0.00 85 1022.6
20220628072504 72 75 0.0 0.9 0.00 0.00 0.00 84 1022.6
20220628072004 72 76 0.0 0.9 0.00 0.00 0.00 84 1022.7
20220628071504 72 76 0.0 0.9 0.00 0.00 0.00 85 1022.7
20220628071004 72 85 0.0 0.9 0.00 0.00 0.00 85 1022.8
20220628070504 72 85 0.0 0.9 0.00 0.00 0.00 84 1022.8
20220628070004 72 71 0.0 0.9 0.00 0.00 0.00 84 1022.9
20220628065504 72 71 0.0 0.9 0.00 0.00 0.00 84 1022.8
20220628065004 72 0 0.0 0.0 0.00 0.00 0.00 84 1022.9
20220628064504 72 0 0.0 0.0 0.00 0.00 0.00 84 1022.8
20220628064004 72 130 0.0 0.9 0.00 0.00 0.00 84 1022.8
20220628063503 72 130 0.0 0.9 0.00 0.00 0.00 84 1022.8
20220628063004 73 0 0.0 0.0 0.00 0.00 0.00 83 1022.7
20220628062504 73 0 0.0 0.0 0.00 0.00 0.00 83 1022.8
20220628062004 73 0 0.0 0.0 0.00 0.00 0.00 82 1022.8
20220628061504 73 142 0.0 0.9 0.00 0.00 0.00 82 1022.9
20220628061004 74 127 0.0 0.9 0.00 0.00 0.00 81 1022.8
20220628060503 74 90 0.0 0.9 0.00 0.00 0.00 81 1022.8
20220628060004 74 66 0.0 0.9 0.00 0.00 0.00 80 1022.8
20220628055504 74 0 0.0 0.0 0.00 0.00 0.00 80 1022.8
20220628055004 75 41 0.0 0.9 0.00 0.00 0.00 79 1023.0
20220628054504 75 56 0.0 1.7 0.00 0.00 0.00 79 1022.9
20220628054004 75 57 0.0 1.7 0.00 0.00 0.00 79 1023.0
20220628053504 75 54 0.9 2.6 0.00 0.00 0.00 79 1023.1
20220628053004 75 51 0.9 2.6 0.00 0.00 0.00 79 1023.0
20220628052504 76 52 0.9 2.6 0.00 0.00 0.00 79 1023.1
20220628052004 75 55 0.0 2.6 0.00 0.00 0.00 79 1023.1
20220628051504 76 63 0.0 0.9 0.00 0.00 0.00 79 1023.0
20220628051004 76 58 0.0 0.9 0.00 0.00 0.00 79 1023.1
20220628050504 76 64 0.0 1.7 0.00 0.00 0.00 78 1023.0
20220628050005 76 66 0.0 1.7 0.00 0.00 0.00 78 1023.0
20220628045504 76 67 0.0 0.9 0.00 0.00 0.00 78 1023.1
20220628045004 76 67 0.0 0.9 0.00 0.00 0.00 77 1023.0
20220628044504 77 59 0.0 2.6 0.00 0.00 0.00 77 1023.1
20220628044004 77 54 0.0 2.6 0.00 0.00 0.00 77 1023.0
20220628043504 77 52 0.0 3.5 0.00 0.00 0.00 76 1022.9